Terminal Aerodrome Forecast
Issued by NWS Omaha/Valley, NE

Home | Current Version | Previous Version | Graphics & Text | Print | Product List | Glossary On
Versions: 1 2 3 4 5 6 7 8 9 10 11 12 13 14 15 16 17 18 19 20 21 22 23 24 25 26 27 28 29 30 31 32 33 34 35 36 37 38 39 40 41 42 43 44 45 46
000
FTUS43 KOAX 192326
TAFOFK
TAF
KOFK 192326Z 2000/2024 21012KT P6SM SCT050 SCT100
     FM200200 22008KT P6SM VCSH SCT030 BKN080
      TEMPO 2002/2006 VRB15G25KT 3SM TSRA BKN030CB
     FM200600 30007KT P6SM -SHRA BKN050
      TEMPO 2006/2009 4SM TSRA BKN030CB
     FM200900 30008KT P6SM SCT030 BKN250
     FM201600 32011KT P6SM SCT100=

USA.gov is the U.S. government's official web portal to all federal, state and local government web resources and services.